• Currently

    Reported at Minneapolis, Minneapolis-St. Paul International Airport, MN
    4:10 AM CST TUE SEP 19 2017
  • 61°F16°C
  • Overcast
    Overcast
  • Feels Like:61°F16°CDew Point:57°F14°CHumidity:88% Winds:SE 8 mph 13 kph
    Pressure:29.91 in1013 hPaVisibility:10.00 miles16090.00 meters
Time Weather Temp Dew Point
Humidity Winds Visibility Pressure Precipitation
1 hr 24 hr
Friday, September 8
23:53 23:53 Mostly Cloudy Mostly Cloudy 59°F15°C 55°F13°C 87% ENE 10 mphENE 17 kph 10.0 miles16.1 km 30 in1016 hPa 0.00 in0.00 mm --
22:53 22:53 Mostly Cloudy Mostly Cloudy 63°F17°C 56°F13°C 78% E 7 mphE 11 kph 10.0 miles16.1 km 29.97 in1015 hPa 0.00 in0.00 mm --
21:53 21:53 Mostly Cloudy Mostly Cloudy 67°F19°C 54°F12°C 63% N 3 mphN 6 kph 10.0 miles16.1 km 29.94 in1014 hPa 0.00 in0.00 mm --
20:53 20:53 Mostly Cloudy Mostly Cloudy 67°F19°C 55°F13°C 66% SSE 5 mphSSE 7 kph 10.0 miles16.1 km 29.94 in1014 hPa 0.00 in0.00 mm --
19:53 19:53 Mostly Cloudy Mostly Cloudy 72°F22°C 51°F11°C 48% SW 5 mphSW 7 kph 10.0 miles16.1 km 29.94 in1014 hPa 0.00 in0.00 mm --
18:53 18:53 Mostly Cloudy Mostly Cloudy 74°F23°C 50°F10°C 43% WSW 6 mphWSW 9 kph 10.0 miles16.1 km 29.94 in1014 hPa 0.00 in0.00 mm --
17:53 17:53 Mostly Cloudy Mostly Cloudy 75°F24°C 50°F10°C 41% W 7 mphW 11 kph 10.0 miles16.1 km 29.94 in1014 hPa 0.00 in0.00 mm --
16:53 16:53 Mostly Cloudy Mostly Cloudy 75°F24°C 48°F9°C 39% WNW 9 mphWNW 15 kph 10.0 miles16.1 km 29.94 in1014 hPa 0.00 in0.00 mm --
15:53 15:53 Mostly Cloudy Mostly Cloudy 74°F23°C 50°F10°C 43% W 9 mphW 15 kph 10.0 miles16.1 km 29.94 in1014 hPa 0.00 in0.00 mm --
14:53 14:53 Mostly Cloudy Mostly Cloudy 72°F22°C 50°F10°C 46% W 9 mphW 15 kph 10.0 miles16.1 km 29.97 in1015 hPa 0.00 in0.00 mm --
13:53 13:53 Mostly Cloudy Mostly Cloudy 71°F22°C 50°F10°C 47% W 9 mphW 15 kph 10.0 miles16.1 km 29.97 in1015 hPa 0.00 in0.00 mm --
12:53 12:53 Mostly Cloudy Mostly Cloudy 69°F21°C 49°F9°C 49% WSW 10 mphWSW 17 kph 10.0 miles16.1 km 29.97 in1015 hPa 0.00 in0.00 mm --
11:53 11:53 Mostly Cloudy Mostly Cloudy 64°F18°C 49°F9°C 58% SW 10 mphSW 17 kph 10.0 miles16.1 km 30 in1016 hPa 0.00 in0.00 mm --
10:53 10:53 Cloudy Cloudy 60°F16°C 47°F8°C 62% SSW 7 mphSSW 11 kph 10.0 miles16.1 km 30.03 in1017 hPa 0.00 in0.00 mm --
09:53 09:53 Cloudy Cloudy 56°F13°C 46°F8°C 70% SW 7 mphSW 11 kph 10.0 miles16.1 km 30.03 in1017 hPa 0.00 in0.00 mm --
08:53 08:53 Cloudy Cloudy 54°F12°C 46°F8°C 75% N 5 mphN 7 kph 10.0 miles16.1 km 30.03 in1017 hPa 0.00 in0.00 mm --
07:53 07:53 Cloudy Cloudy 51°F11°C 46°F8°C 83% SW 3 mphSW 6 kph 10.0 miles16.1 km 30.03 in1017 hPa 0.00 in0.00 mm --
06:53 06:53 Cloudy Cloudy 50°F10°C 46°F8°C 86% SW 5 mphSW 7 kph 10.0 miles16.1 km 30.03 in1017 hPa 0.00 in0.00 mm --
05:53 05:53 Mostly Cloudy Mostly Cloudy 50°F10°C 46°F8°C 86% SW 5 mphSW 7 kph 10.0 miles16.1 km 30.03 in1017 hPa 0.00 in0.00 mm --
04:53 04:53 Mostly Clear Mostly Clear 50°F10°C 47°F8°C 89% SW 3 mphSW 6 kph 10.0 miles16.1 km 30.03 in1017 hPa 0.00 in0.00 mm --
03:53 03:53 Mostly Clear Mostly Clear 50°F10°C 48°F9°C 93% SW 3 mphSW 6 kph 10.0 miles16.1 km 30.03 in1017 hPa 0.00 in0.00 mm --
02:53 02:53 Mostly Clear Mostly Clear 53°F12°C 48°F9°C 83% CalmCalm 10.0 miles16.1 km 30.06 in1018 hPa 0.00 in0.00 mm --
01:53 01:53 Mostly Clear Mostly Clear 54°F12°C 46°F8°C 75% SW 5 mphSW 7 kph 10.0 miles16.1 km 30.06 in1018 hPa 0.00 in0.00 mm --
00:53 00:53 Partly Cloudy Partly Cloudy 53°F12°C 47°F8°C 80% CalmCalm 10.0 miles16.1 km 30.06 in1018 hPa 0.00 in0.00 mm --